Погода в Табате

Россия / Республика Хакасия     52°55′29″N   90°42′47″E
темп.,
°C
ветер,
м/с
пор.,
м/с
влажн.,
%
обл.,
%
осадки,
мм/ч
давл.,
гПа
погр.,
м
28 сентября, вт
вт2801:00−3юв21711 0.0 102515
04:00−4юв11752 0.0 102412
07:00−5ю11784 0.0 102411
10:00+1сз10504 0.0 1023437
13:00+6с223744 0.0 10201023
16:00+7с2236100 0.0 1020960
19:00+1вюв225691 0.0 102110
22:000юв226394 0.0 102212
29 сентября, ср
ср2901:00−1ююв1065100 0.0 102110
04:00−3в117531 0.0 102110
07:00−3в11806 0.0 102010
10:00+3с225445 0.0 1018403
13:00+7с3243100 0.0 1015643
16:00+7зсз1147100 0.0 1015452
19:00+3зюз0186100 1.1 101615
22:00+4юз129298 0.6 101634
30 сентября, чт
чт3001:00+3ююз1192100 0.6 101512
04:00+3ю229299 0.0 101513
07:00+3ю2290100 0.0 101414
10:00+7ююз1180100 0.0 1014134
13:00+11з2261100 0.0 1012917
16:00+11з2362100 0.3 1011956
19:00+7ю1187100 0.6 101111
22:00+4юз61190100 6.9 1015685
1 октября, пт
пт101:00+2зюз61284100 6.9 1015805
04:00+1юз3985100 0.0 1015362
07:00+2юз3883100 0.0 1015398
10:00+4зюз5872100 0.0 1016998
13:00+5зюз71059100 0.0 10161361
16:00+5зюз8116098 0.0 10171258
19:00+2юз6117637 0.0 1019616
22:00+1юз6127599 0.0 1020857
2 октября, сб
сб201:00+2юз4107198 0.0 1020606
04:00+1ююз41072100 0.0 1020558
07:00+2юз41069100 0.0 1020654
10:00+4юз4851100 0.0 10201417
13:00+6зюз6845100 0.0 10191941
16:00+5зюз71154100 0.1 10201474
19:00+2зюз51074100 0.1 1022555
22:000зюз6108396 0.1 1025549